AirNav   Everest Fuels
 
 825 users online  

9GA1 Briar Patch Airport
Clyo, Georgia, USA

GOING TO CLYO?


FAA INFORMATION EFFECTIVE 21 MAY 2020

Location

FAA Identifier: 9GA1
Lat/Long: 32-26-56.0000N 081-20-13.0000W
32-26.933333N 081-20.216667W
32.4488889,-81.3369444
(estimated)
Elevation: 100 ft. / 30 m (estimated)
Variation: 05W (1995)
From city: 4 miles SW of CLYO, GA
Time zone: UTC -4 (UTC -5 during Standard Time)
Zip code: 31303

Airport Operations

Airport use: Private use. Permission required prior to landing
Activation date: 02/1998
Control tower: no
ARTCC: JACKSONVILLE CENTER
FSS: MACON FLIGHT SERVICE STATION
Attendance: UNATNDD
Wind indicator: yes
Segmented circle: no

Airport Communications

WX AWOS-3 at JYL (18 nm NW): 118.875 (912-857-9000)

Nearby radio navigation aids

VOR radial/distance  VOR name  Freq  Var
SAVr345/19.5SAVANNAH VORTAC115.9506W
SVNr341/28.0HUNTER VOR/DME111.6002W
ALDr185/(33.9)ALLENDALE VOR116.7001W

 
NDB name  Hdg/Dist  Freq  Var  ID
SYLVANIA140/17.724507WJYL .--- -.-- .-..
CLAXTON068/31.339507WCWV -.-. .-- ...-
MC INTOSH017/38.126304WMOQ -- --- --.-

Airport Services

Runway Information

Runway 16/34

Dimensions: 2600 x 100 ft. / 792 x 30 m
Surface: turf, in good condition
RUNWAY 16  RUNWAY 34
Traffic pattern: leftleft

Airport Ownership and Management from official FAA records

Ownership: Privately-owned
Owner: TIM O'NEILL
547 GREEN MORGAN SCHOOL ROAD
CLYO, GA 31303
Phone (912) 754-7547
Manager: TIM O'NEILL
547 GREEN MORGAN SCHOOL ROAD
CLYO, GA 31303
Phone (912) 754-7547

Airport Operational Statistics

Aircraft based on the field: 7
Single engine airplanes: 3
Ultralights: 4
    

Additional Remarks

FOR CD CTC SAVANNAH APCH AT 912-964-3205, WHEN APCH CLSD CTC JACKSONVILLE ARTCC AT 904-845-1592.

Instrument Procedures

There are no published instrument procedures at 9GA1.

Some nearby airports with instrument procedures:

KJYL - Plantation Airpark (18 nm NW)
KTBR - Statesboro-Bulloch County Airport (20 nm W)
KSAV - Savannah/Hilton Head International Airport (20 nm S)
KSVN - Hunter Army Airfield (28 nm S)
KCWV - Claxton-Evans County Airport (31 nm SW)
 
Loc | Ops | Rwys | IFR | FBO | Links
Com | Nav | Svcs | Stats | Notes
Area around 9GA1 (Briar Patch Airport)
 
Road maps at: MapQuest Bing Google
 
Aerial photo
WARNING: Photo may not be current or correct
Aerial photo of 9GA1 (Briar Patch Airport)
Photo taken 20-Aug-2005

Do you have a better or more recent aerial photo of Briar Patch Airport that you would like to share? If so, please send us your photo.

 
Sectional chart

 
Airport distance calculator
Flying to Briar Patch Airport? Find the distance to fly.

From to 9GA1

Sunrise and sunset
Times for 03-Jun-2020
 Local
(UTC-4)
 Zulu
(UTC)
Morning civil twilight05:5109:51
Sunrise06:1910:19
Sunset20:2800:28
Evening civil twilight20:5600:56

Current date and time
Zulu (UTC)  04-Jun-2020 02:53:38
Local (UTC-4)  03-Jun-2020 22:53:38
 
METAR
KJYL 
18nm NW 
040235Z AUTO 18004KT 10SM CLR 24/20 A3001 RMK AO2 T02370196
KTBR 
20nm W 
040235Z AUTO 18006KT 10SM CLR 24/17 A3001 RMK AO2 T02390174
KSAV 
21nm S 
040153Z 21005KT 10SM BKN250 24/18 A3001 RMK AO2 SLP162 T02390183
KSVN 
28nm S 
040156Z AUTO 18006KT 10SM CLR 24/17 A2999 RMK AO2 SLPNO T02400172 $
KCWV 
31nm SW 
040235Z AUTO 00000KT 10SM CLR 24/18 A3001 RMK AO2 T02400177
KNBC 
31nm E 
040156Z 19005KT 10SM BKN150 25/20 A3000 RMK AO2 SLP160 T02500200
KAQX 
33nm N 
040235Z AUTO 17005KT 10SM CLR 24/19 A2999 RMK AO2
KHXD 
35nm E 
040235Z AUTO 20007KT 160V220 10SM CLR 24/18 A3002 RMK AO2
TAF
KSAV 
21nm S 
031720Z 0318/0418 17011KT P6SM FEW050 BKN200 FM040200 20005KT P6SM SCT035 OVC150 FM041500 20008KT P6SM SCT040 OVC100
NOTAMs
Click for the latest NOTAMs
NOTAMs are issued by the DoD/FAA and will open in a separate window not controlled by AirNav.

 

 
 

Would you like to see your business listed on this page?

 If your business provides an interesting product or service to pilots, flight crews, aircraft, or users of the Briar Patch Airport, you should consider listing it here.  To start the listing process, click on the button below
 
Add a business
 

Other Pages about Briar Patch Airport

Update a link
 
Copyright © AirNav, LLC. All rights reserved. Privacy Policy  Contact